Wind_Speed
28 27 28 29 29 29 30 31 32 30 29 28 28 29 29 29 29 29 29 30 30 31 31 32 32 33 33 33 33 34 34 34 35 35 36 36 36 37 37 37 38 38 38 38
29 28 29 29 28 29 30 31 31 30 29 28 30 30 29 29 29 30 30 30 30 31 31 31 31 32 32 32 32 33 33 33 34 35 35 36 36 36 36 36 36 37 37 37
28 27 29 29 27 28 30 29 29 28 27 27 29 30 30 30 30 30 30 31 31 31 31 31 31 31 31 31 32 32 32 33 34 34 35 35 35 35 35 36 36 36 36 35
27 26 28 27 26 27 28 27 27 27 27 27 28 28 29 29 30 30 30 31 31 31 31 31 31 31 31 31 31 32 32 33 33 34 34 34 34 34 34 34 34 34 34 34
27 27 26 25 25 26 26 26 26 27 27 27 28 28 28 29 30 30 30 31 30 30 31 31 31 31 31 31 31 31 32 32 33 33 32 32 32 33 33 33 32 32 31 31
25 27 27 25 24 24 25 25 24 25 26 26 26 27 27 28 30 30 30 30 31 30 31 31 31 31 32 31 31 31 31 31 31 32 32 32 31 31 31 31 30 30 30 30
24 25 25 25 23 23 23 23 23 23 24 25 25 25 26 27 28 29 30 30 31 31 31 32 32 32 31 31 30 30 30 30 30 30 30 30 30 29 29 29 29 28 28 29
24 24 24 23 24 23 23 22 23 23 23 24 25 25 26 27 28 28 29 30 30 31 31 31 31 31 30 30 30 30 29 29 28 28 28 28 28 27 27 26 27 26 26 27
24 24 23 23 24 23 23 23 23 23 24 24 25 26 26 27 27 27 27 28 28 28 28 28 28 28 28 28 28 28 28 27 27 26 26 26 25 25 25 25 25 25 26 26
23 23 23 23 23 23 23 23 23 24 24 25 25 25 25 26 26 25 25 25 25 25 25 25 25 25 26 26 26 26 25 25 24 24 24 23 24 24 24 24 24 25 24 24
24 23 23 22 22 22 22 23 24 24 24 24 24 24 24 24 24 24 24 24 24 24 24 24 24 24 24 23 23 23 23 23 22 22 22 23 23 22 22 23 23 23 23 23
24 24 24 24 23 23 23 23 23 24 24 23 23 23 24 24 24 24 23 23 23 22 22 22 22 22 22 22 22 21 21 21 21 21 20 20 21 21 21 21 22 22 22 21
24 24 25 25 24 24 24 23 23 22 23 23 23 24 24 23 23 23 23 22 21 21 20 20 20 19 19 19 20 20 20 20 19 19 19 19 18 19 19 19 19 19 19 19
24 24 25 25 25 25 24 23 23 23 23 23 23 24 24 23 23 22 21 21 20 20 20 19 18 18 18 17 17 17 17 17 17 17 17 17 17 17 17 18 18 18 17 17
24 24 24 24 24 24 24 23 23 23 24 24 24 24 23 23 22 21 20 20 20 20 19 18 17 16 16 15 14 15 15 15 15 16 16 16 16 16 16 16 16 16 16 16
24 24 24 24 24 24 24 24 24 24 24 24 24 23 23 22 21 20 20 20 20 20 18 17 16 15 14 14 14 14 14 14 14 14 14 15 15 14 14 14 15 15 15 16
24 24 23 23 23 23 24 24 24 23 23 23 22 22 21 20 19 19 19 19 20 19 18 16 15 15 15 14 14 14 13 13 13 13 13 13 13 14 14 14 14 14 15 15
23 23 23 23 24 24 24 24 23 23 23 22 21 20 19 18 18 18 18 18 18 18 17 16 15 15 14 14 14 14 14 13 13 13 13 13 14 14 14 15 15 15 15 15
21 22 22 22 23 23 23 23 22 22 22 21 20 19 19 19 18 18 18 18 18 17 16 15 15 15 14 14 14 14 14 14 14 14 14 14 14 14 14 14 14 14 15 15
20 20 21 21 22 22 21 21 21 21 21 20 20 19 19 19 19 19 19 18 17 17 16 16 15 15 15 14 14 14 14 14 15 15 15 15 14 14 14 14 14 14 14 14
20 20 21 21 21 21 21 21 20 20 20 20 20 20 20 19 19 19 19 18 17 17 17 16 16 15 15 14 14 14 14 15 15 15 15 15 14 14 14 14 14 14 14 14
20 20 20 21 21 21 21 20 20 20 20 20 20 20 20 20 19 19 18 18 17 17 17 16 16 15 15 15 14 14 14 14 14 15 15 14 14 14 14 14 14 14 14 14
19 19 19 20 20 19 19 19 19 19 20 20 20 19 19 19 19 18 18 17 17 16 16 16 15 15 15 14 14 14 14 14 14 14 13 13 13 13 14 14 14 14 14 14
19 18 18 18 18 18 18 18 18 19 19 19 18 17 17 17 17 16 16 16 16 15 15 15 15 15 14 14 14 13 13 13 13 13 13 13 13 13 13 13 13 13 14 14
17 16 16 17 17 17 17 17 17 17 17 17 16 15 15 15 14 14 14 14 14 14 14 14 14 14 14 14 13 13 13 13 13 13 13 13 13 13 13 13 13 14 14 14
15 15 15 15 16 16 16 16 16 16 16 15 14 14 14 13 13 13 13 13 12 12 13 13 13 13 13 13 13 13 13 13 13 13 14 14 13 13 13 13 14 14 14 14
14 15 15 15 15 15 15 15 15 15 14 14 13 13 13 12 12 11 11 11 11 11 12 12 13 13 13 13 14 14 14 14 14 14 14 14 14 14 14 14 14 15 14 14
Wind_Direction
273 273 274 273 273 272 270 269 270 272 271 271 271 270 270 270 271 272 272 272 272 273 273 274 274 273 271 270 269 269 269 268 268 268 269 270 270 270 270 271 272 272 272 274
273 272 272 272 271 272 271 271 272 272 272 272 270 270 269 269 270 271 272 272 272 273 274 275 275 274 272 271 270 270 269 268 268 268 269 271 272 272 272 272 273 273 273 274
274 273 273 274 274 273 273 273 271 271 272 271 271 271 269 269 270 271 272 272 273 273 274 274 275 275 273 272 271 270 270 269 268 268 270 270 271 272 273 273 273 274 273 273
275 275 276 280 276 274 274 273 272 271 271 272 272 272 271 271 270 271 273 273 274 274 275 275 275 274 273 272 272 271 270 269 268 269 269 270 269 271 272 273 274 274 274 274
275 277 280 280 280 279 277 274 273 272 272 272 272 272 274 273 273 273 274 274 274 275 275 276 275 275 274 273 273 273 271 269 269 269 269 269 269 270 271 272 273 274 275 275
275 277 280 282 282 282 279 276 276 274 272 272 272 272 273 275 276 276 277 276 275 276 276 277 276 275 275 273 273 273 271 270 269 269 269 270 269 270 270 272 273 274 274 276
275 278 281 283 283 282 280 280 277 276 274 273 274 276 276 277 278 278 278 277 277 278 279 278 277 277 275 274 273 272 271 270 270 270 270 269 269 270 270 271 272 274 275 277
275 278 283 284 283 281 280 278 278 280 279 277 278 279 280 281 282 280 279 279 280 280 280 280 278 276 274 273 272 271 270 270 270 269 269 269 269 269 269 270 272 274 276 278
276 278 283 284 283 281 279 278 279 282 282 282 281 282 284 285 286 284 281 281 282 282 282 281 280 278 275 273 272 269 268 269 268 268 268 269 268 268 270 271 271 274 277 278
275 277 280 283 283 282 281 280 280 281 283 283 283 284 284 286 287 287 284 283 284 284 283 282 281 280 278 275 271 267 265 265 266 266 267 268 267 268 269 270 271 274 276 277
273 275 277 278 280 281 282 282 282 282 283 285 284 284 285 286 287 286 285 285 285 284 284 283 282 281 280 276 271 267 265 265 266 266 267 267 268 269 270 271 272 275 276 277
275 276 276 278 279 279 280 281 281 283 284 284 285 285 286 285 285 284 284 285 286 287 286 285 283 281 279 276 273 268 264 264 265 266 266 266 267 269 271 272 274 276 277 278
276 277 277 277 277 278 280 281 281 282 283 284 286 287 287 286 285 284 284 285 285 287 288 288 286 282 279 277 273 268 263 262 262 263 263 264 266 268 270 272 275 276 277 277
276 277 277 277 277 278 279 279 279 280 282 285 287 288 287 286 285 283 283 283 284 285 287 287 285 282 281 278 274 269 264 260 260 261 262 263 265 267 268 272 275 276 277 277
276 276 277 277 278 279 278 279 279 280 283 285 287 288 287 285 282 281 281 282 284 285 285 283 281 281 280 277 274 270 264 261 262 262 263 264 265 267 271 274 276 277 277 278
276 276 277 277 278 278 280 280 280 282 284 286 287 287 286 283 280 280 280 282 285 285 282 279 277 275 275 275 275 270 265 264 265 264 263 263 264 266 271 276 279 280 281 280
277 277 277 278 278 278 280 282 282 283 285 287 288 287 285 282 279 279 281 284 285 284 279 274 272 273 274 272 270 265 264 265 265 264 263 262 264 267 271 276 280 281 280 281
278 279 278 278 277 278 279 281 281 283 285 286 287 286 283 281 279 279 281 284 284 282 278 273 272 272 272 270 268 264 262 261 261 263 263 264 267 270 272 275 279 281 281 282
282 282 281 281 280 280 281 280 281 282 284 286 287 284 282 282 282 280 280 282 283 280 276 273 272 271 270 269 267 262 260 259 260 263 264 265 267 271 273 275 277 280 280 282
284 283 283 282 282 282 282 281 281 283 285 286 286 284 284 282 281 280 280 280 279 277 274 273 273 271 269 266 264 262 261 261 262 264 265 265 266 268 271 274 277 278 279 282
283 282 282 282 282 282 282 282 282 283 285 286 285 284 284 282 281 280 279 279 278 276 273 271 270 269 266 263 262 261 262 263 263 263 264 265 266 267 269 271 274 277 279 282
285 282 281 282 283 284 283 283 284 285 286 287 285 284 283 281 279 278 278 278 277 275 272 268 267 265 262 260 260 261 262 263 264 264 265 265 264 264 266 269 272 275 279 282
285 284 282 282 284 285 284 284 285 286 287 287 285 284 281 279 277 275 274 274 274 273 269 265 263 262 261 259 259 260 261 262 264 264 265 263 262 263 267 270 272 276 278 280
286 283 282 282 282 283 284 284 284 285 286 286 284 282 280 279 276 273 272 271 271 269 267 263 260 259 257 257 257 257 259 262 263 262 261 261 262 265 268 271 275 279 279 279
287 285 283 283 283 283 284 285 286 286 286 284 281 279 280 278 275 272 271 269 266 264 262 261 261 259 256 254 254 256 259 260 259 259 259 261 264 266 269 272 276 281 282 281
285 285 285 285 285 284 285 286 288 288 286 284 280 278 277 276 274 272 270 268 265 262 260 259 258 256 253 251 253 256 258 259 259 260 262 262 264 267 270 272 276 281 282 283
285 285 287 288 287 286 286 288 289 289 287 286 284 281 278 277 275 273 271 269 266 263 260 259 258 256 254 252 255 258 259 260 260 261 263 263 264 267 271 274 279 281 282 283
Height
5589 5589 5588 5588 5588 5588 5587 5587 5587 5589 5589 5590 5590 5590 5590 5590 5590 5590 5589 5590 5589 5589 5589 5588 5587 5587 5586 5586 5586 5586 5586 5586 5586 5586 5586 5586 5586 5586 5586 5586 5586 5586 5586 5586
5581 5581 5580 5580 5581 5580 5579 5579 5579 5580 5581 5582 5581 5581 5582 5582 5582 5582 5581 5581 5581 5581 5580 5579 5578 5578 5577 5577 5576 5576 5576 5576 5576 5576 5576 5576 5576 5576 5576 5576 5576 5575 5575 5575
5573 5573 5571 5572 5575 5573 5572 5572 5572 5571 5574 5573 5573 5573 5573 5574 5574 5573 5573 5573 5572 5572 5571 5570 5569 5569 5568 5568 5567 5567 5567 5566 5566 5566 5566 5566 5566 5566 5566 5566 5566 5565 5565 5565
5565 5566 5564 5569 5566 5565 5565 5565 5564 5564 5565 5565 5565 5565 5565 5565 5565 5565 5565 5564 5563 5563 5562 5561 5560 5559 5559 5559 5558 5558 5557 5556 5556 5556 5556 5556 5556 5557 5557 5557 5556 5556 5555 5555
5559 5557 5558 5560 5559 5558 5557 5557 5558 5557 5557 5557 5557 5557 5557 5557 5556 5556 5556 5555 5554 5553 5553 5552 5551 5550 5550 5549 5549 5548 5547 5547 5546 5546 5546 5547 5547 5547 5547 5547 5547 5547 5546 5546
5552 5551 5551 5554 5552 5550 5550 5550 5551 5549 5549 5549 5549 5550 5551 5549 5547 5547 5546 5545 5545 5544 5543 5542 5541 5541 5540 5540 5539 5539 5538 5538 5537 5537 5537 5538 5538 5538 5538 5538 5538 5538 5538 5537
5546 5544 5544 5547 5545 5544 5545 5545 5544 5542 5542 5542 5542 5542 5542 5540 5539 5538 5537 5536 5535 5534 5533 5532 5531 5531 5530 5530 5529 5529 5529 5529 5529 5528 5528 5529 5529 5529 5529 5529 5529 5529 5529 5529
5540 5539 5541 5540 5538 5538 5538 5536 5536 5535 5535 5535 5535 5534 5533 5532 5530 5529 5528 5527 5526 5525 5524 5522 5521 5520 5520 5520 5520 5519 5519 5519 5520 5520 5520 5520 5520 5521 5521 5521 5521 5521 5521 5521
5535 5536 5534 5533 5532 5531 5530 5530 5529 5529 5528 5528 5527 5526 5525 5524 5522 5521 5519 5518 5517 5515 5514 5513 5512 5511 5510 5510 5510 5510 5510 5511 5511 5511 5512 5512 5512 5513 5513 5513 5514 5514 5514 5513
5528 5528 5528 5526 5525 5525 5524 5523 5523 5522 5521 5521 5520 5519 5518 5516 5514 5513 5511 5510 5509 5507 5506 5505 5503 5502 5501 5501 5501 5501 5502 5502 5503 5503 5504 5504 5505 5505 5506 5506 5506 5506 5506 5506
5522 5522 5521 5521 5520 5519 5517 5517 5516 5515 5514 5513 5512 5511 5510 5508 5507 5505 5504 5503 5501 5500 5499 5497 5496 5495 5494 5493 5493 5493 5494 5495 5495 5496 5496 5497 5497 5498 5499 5499 5499 5499 5499 5498
5516 5516 5515 5514 5513 5512 5511 5510 5509 5508 5508 5507 5505 5504 5503 5501 5500 5498 5497 5496 5494 5493 5491 5490 5489 5488 5487 5486 5485 5486 5487 5488 5488 5489 5490 5490 5491 5491 5491 5492 5492 5492 5492 5492
5509 5508 5507 5507 5506 5505 5504 5503 5502 5501 5501 5500 5498 5497 5495 5494 5492 5491 5490 5489 5487 5486 5485 5483 5482 5481 5480 5479 5479 5479 5480 5481 5482 5483 5484 5484 5485 5485 5486 5486 5486 5486 5486 5486
5501 5501 5500 5500 5499 5498 5497 5496 5495 5494 5493 5492 5491 5490 5488 5487 5485 5484 5483 5482 5481 5480 5478 5477 5476 5475 5474 5473 5473 5473 5474 5475 5476 5477 5478 5478 5479 5480 5480 5480 5481 5480 5480 5480
5494 5493 5493 5492 5491 5490 5489 5489 5488 5487 5486 5485 5484 5482 5481 5479 5478 5477 5476 5476 5475 5473 5472 5471 5470 5470 5469 5468 5468 5469 5469 5470 5471 5472 5473 5473 5474 5474 5475 5475 5475 5475 5475 5475
5487 5486 5486 5485 5484 5483 5482 5482 5481 5480 5479 5478 5477 5475 5474 5472 5471 5471 5470 5470 5469 5468 5467 5466 5465 5465 5464 5464 5464 5464 5465 5466 5467 5467 5468 5468 5469 5470 5470 5470 5471 5471 5471 5470
5480 5480 5479 5478 5478 5477 5476 5475 5474 5473 5472 5471 5470 5468 5467 5466 5465 5465 5464 5464 5463 5462 5461 5461 5461 5460 5460 5460 5460 5460 5461 5461 5462 5463 5463 5464 5465 5465 5466 5466 5466 5466 5466 5466
5474 5473 5472 5472 5471 5470 5470 5469 5468 5467 5466 5465 5463 5462 5461 5460 5460 5459 5459 5458 5457 5457 5456 5456 5456 5456 5456 5456 5456 5456 5457 5457 5458 5459 5459 5460 5460 5461 5461 5461 5462 5461 5461 5461
5467 5467 5466 5465 5465 5464 5463 5462 5461 5460 5459 5458 5457 5456 5455 5455 5454 5454 5453 5453 5452 5451 5451 5451 5451 5451 5451 5451 5451 5452 5452 5453 5454 5454 5455 5455 5456 5456 5457 5457 5457 5457 5457 5456
5461 5461 5460 5459 5458 5457 5457 5456 5455 5454 5453 5452 5451 5450 5450 5449 5448 5448 5447 5447 5447 5446 5446 5446 5446 5446 5446 5446 5447 5447 5448 5449 5449 5450 5450 5451 5451 5452 5452 5452 5452 5452 5452 5452
5456 5455 5454 5453 5452 5451 5450 5450 5449 5448 5447 5446 5445 5444 5444 5443 5443 5442 5442 5441 5441 5440 5440 5440 5441 5441 5441 5442 5442 5443 5444 5444 5445 5446 5446 5447 5447 5447 5448 5448 5448 5448 5448 5448
5450 5449 5448 5448 5447 5445 5444 5444 5443 5442 5441 5440 5439 5438 5438 5437 5437 5436 5436 5436 5435 5435 5435 5435 5436 5436 5437 5437 5438 5439 5439 5440 5440 5441 5442 5442 5443 5443 5443 5443 5443 5443 5443 5443
5444 5443 5442 5442 5441 5440 5439 5438 5437 5436 5435 5434 5433 5432 5431 5431 5430 5430 5430 5430 5429 5429 5430 5430 5431 5431 5432 5432 5433 5434 5435 5435 5436 5437 5437 5438 5438 5438 5439 5439 5439 5439 5439 5439
5438 5437 5436 5436 5435 5434 5433 5433 5431 5430 5429 5428 5427 5426 5425 5425 5425 5424 5424 5424 5424 5424 5425 5425 5426 5426 5427 5428 5429 5430 5430 5431 5432 5432 5433 5433 5434 5434 5434 5435 5435 5435 5434 5434
5432 5432 5431 5430 5429 5429 5428 5427 5426 5425 5424 5423 5422 5421 5420 5419 5419 5419 5419 5419 5419 5420 5420 5421 5421 5422 5423 5423 5424 5425 5426 5427 5427 5428 5429 5429 5430 5430 5430 5431 5431 5430 5430 5430
5428 5427 5426 5425 5424 5424 5423 5422 5420 5419 5418 5417 5417 5416 5415 5415 5415 5414 5414 5415 5415 5415 5416 5416 5417 5417 5418 5419 5420 5421 5422 5423 5423 5424 5425 5425 5426 5426 5426 5426 5426 5426 5426 5425
5424 5423 5422 5421 5420 5419 5418 5417 5416 5415 5414 5413 5413 5412 5411 5411 5411 5411 5411 5411 5411 5411 5412 5412 5413 5413 5414 5415 5416 5417 5418 5418 5419 5420 5420 5421 5421 5422 5422 5422 5422 5422 5421 5421